Location: Marcé
(47.5801°N, 0.3280°W)
Time: 19:23:36
(UTC+01:00)

Courier 1B - Pass Details

Date: 05 December 2021
Orbit: 962 x 1209 km, 28.3° (Epoch: 21 January)

Event Time Altitude Azimuth Distance (km) Brightness Sun altitude
Rises 19:19:09 0° 239° (WSW) 3,994 12.0 -20.8°
Reaches altitude 10° 19:23:21 10° 218° (SW) 2,983 10.7 -21.5°
Maximum altitude 19:27:16 15° 186° (S) 2,554 9.8 -22.2°
Drops below altitude 10° 19:31:05 10° 152° (SSE) 2,880 9.8 -22.8°
Enters shadow 19:31:59 - 146° (SSE) 3,051 9.8 -22.9°
